ETD844 UUEE-OMAA

Flight info

Callsign ETD844
Flight time N/A
Altitude 37000
Route TOGMO3H TOGMO M56 DENUD M161 LATNU/K0896F390 M161 AMDAR/N0487F390 M875 TAPIS L509 LAJAK M881 LAKRA/N0492F380 G325 SAJAN/N0488F400 G325 PG T385 TAPDO A454 VUSET R462 MIXAM P899 ROVOS
Aircraft A35K/H-SDE2E3GHIJ3J4J5LM1ORWXY/LB1D1

Departure

Time 2026-05-04 12:08
Airport Sheremetyevo International Airport (UUEE)

Arrival

Time N/A
Airport Zayed International Airport (OMAA)
Time Latitude Longitude Altitude Speed Heading
2026-05-04 11:49 55.97940 37.40924 645 ft 0 kts 76°
2026-05-04 11:57 55.97937 37.40902 646 ft 4 kts 77°
2026-05-04 11:57 55.97932 37.40855 648 ft 4 kts 83°
2026-05-04 11:57 55.97931 37.40810 648 ft 4 kts 100°
2026-05-04 11:58 55.97936 37.40777 649 ft 4 kts 135°
2026-05-04 11:58 55.97943 37.40765 647 ft 0 kts 165°
2026-05-04 12:01 55.97925 37.40774 647 ft 9 kts 165°
2026-05-04 12:01 55.97855 37.40806 645 ft 11 kts 165°
2026-05-04 12:02 55.97553 37.41176 645 ft 7 kts 134°
2026-05-04 12:03 55.97551 37.41288 645 ft 19 kts 75°
2026-05-04 12:03 55.97592 37.41567 645 ft 24 kts 75°
2026-05-04 12:03 55.97636 37.41861 645 ft 25 kts 75°
2026-05-04 12:03 55.97680 37.42161 645 ft 26 kts 75°
2026-05-04 12:04 55.97727 37.42474 645 ft 26 kts 75°
2026-05-04 12:04 55.97775 37.42796 645 ft 27 kts 75°
2026-05-04 12:04 55.97825 37.43127 645 ft 28 kts 75°
2026-05-04 12:04 55.97875 37.43463 645 ft 28 kts 75°
2026-05-04 12:05 55.97920 37.43755 645 ft 15 kts 75°
2026-05-04 12:05 55.97946 37.43944 645 ft 16 kts 87°
2026-05-04 12:05 55.97911 37.44041 645 ft 5 kts 163°
2026-05-04 12:05 55.97870 37.44060 645 ft 7 kts 166°
2026-05-04 12:06 55.97822 37.44078 646 ft 7 kts 177°
2026-05-04 12:06 55.97784 37.44030 645 ft 7 kts 245°
2026-05-04 12:06 55.97779 37.44002 646 ft 0 kts 255°
2026-05-04 12:07 55.97778 37.43999 646 ft 2 kts 255°
2026-05-04 12:08 55.97727 37.43655 646 ft 61 kts 255°
2026-05-04 12:08 55.97565 37.42571 646 ft 118 kts 255°
2026-05-04 12:08 55.97308 37.40861 684 ft 163 kts 256°
2026-05-04 12:08 55.97033 37.39008 1442 ft 151 kts 255°
2026-05-04 12:09 55.96739 37.37181 2049 ft 158 kts 256°
2026-05-04 12:09 55.96423 37.35199 2301 ft 179 kts 255°
2026-05-04 12:09 55.96063 37.32930 2557 ft 199 kts 256°
2026-05-04 12:09 55.95675 37.30465 2961 ft 213 kts 255°
2026-05-04 12:10 55.95260 37.27828 3349 ft 230 kts 256°
2026-05-04 12:10 55.94923 37.24951 3797 ft 242 kts 267°
2026-05-04 12:10 55.95265 37.22004 4498 ft 248 kts 296°
2026-05-04 12:10 55.96399 37.19669 5231 ft 255 kts 323°
2026-05-04 12:11 55.98055 37.18472 5983 ft 264 kts 349°
2026-05-04 12:11 55.99897 37.18781 6762 ft 273 kts 15°
2026-05-04 12:11 56.01531 37.20594 7562 ft 284 kts 41°
2026-05-04 12:11 56.02630 37.23595 8268 ft 297 kts 67°
2026-05-04 12:12 56.02945 37.27273 9068 ft 304 kts 92°
2026-05-04 12:12 56.02646 37.30983 9872 ft 308 kts 101°
2026-05-04 12:12 56.02191 37.34788 10617 ft 311 kts 102°
2026-05-04 12:12 56.01726 37.38538 11344 ft 315 kts 102°
2026-05-04 12:13 56.01251 37.42364 12116 ft 317 kts 102°
2026-05-04 12:14 55.94464 37.68317 16263 ft 360 kts 121°
2026-05-04 12:15 55.93181 37.72172 16893 ft 363 kts 121°
2026-05-04 12:15 55.91887 37.76055 17565 ft 366 kts 121°
2026-05-04 12:15 55.90574 37.79992 18191 ft 371 kts 121°
2026-05-04 12:15 55.89264 37.83916 18763 ft 374 kts 121°
2026-05-04 12:16 55.87930 37.87903 19373 ft 377 kts 121°
2026-05-04 12:16 55.86578 37.91941 19973 ft 380 kts 121°
2026-05-04 12:16 55.85215 37.96002 20579 ft 383 kts 121°
2026-05-04 12:16 55.83839 38.00099 21158 ft 386 kts 121°
2026-05-04 12:17 55.82454 38.04212 21778 ft 389 kts 121°
2026-05-04 12:17 55.81048 38.08358 22369 ft 392 kts 122°
2026-05-04 12:17 55.79430 38.12272 22948 ft 395 kts 133°
2026-05-04 12:17 55.77422 38.15641 23334 ft 403 kts 141°
2026-05-04 12:18 55.75173 38.18735 23554 ft 414 kts 145°
2026-05-04 12:18 55.72781 38.21709 23761 ft 426 kts 147°
2026-05-04 12:18 55.70293 38.24683 23967 ft 437 kts 147°
2026-05-04 12:18 55.67734 38.27734 24191 ft 449 kts 147°
2026-05-04 12:19 55.65123 38.30880 24388 ft 460 kts 146°
2026-05-04 12:19 55.62454 38.34140 24694 ft 468 kts 146°
2026-05-04 12:19 55.59774 38.37444 25166 ft 472 kts 145°
2026-05-04 12:19 55.57075 38.40788 25648 ft 475 kts 145°
2026-05-04 12:20 55.54358 38.44157 26141 ft 479 kts 145°
2026-05-04 12:20 55.51625 38.47542 26630 ft 482 kts 145°
2026-05-04 12:20 55.48867 38.50952 27114 ft 485 kts 144°
2026-05-04 12:20 55.46125 38.54334 27590 ft 489 kts 144°
2026-05-04 12:21 55.43331 38.57771 28074 ft 492 kts 144°
2026-05-04 12:21 55.40516 38.61227 28522 ft 495 kts 144°
2026-05-04 12:21 55.37785 38.64574 28958 ft 498 kts 144°
2026-05-04 12:21 55.34940 38.68054 29389 ft 501 kts 144°
2026-05-04 12:22 55.32066 38.71563 29807 ft 503 kts 144°
2026-05-04 12:22 55.29191 38.75067 30141 ft 506 kts 144°
2026-05-04 12:22 55.26295 38.78589 30558 ft 507 kts 144°
2026-05-04 12:22 55.23402 38.82167 30992 ft 507 kts 142°
2026-05-04 12:23 55.20748 38.86196 31408 ft 506 kts 133°
2026-05-04 12:23 55.18473 38.90875 31806 ft 503 kts 123°
2026-05-04 12:23 55.16693 38.96111 32221 ft 500 kts 113°
2026-05-04 12:23 55.15337 39.01700 32652 ft 497 kts 108°
2026-05-04 12:24 55.14125 39.07347 33078 ft 496 kts 108°
2026-05-04 12:24 55.12854 39.12954 33491 ft 496 kts 109°
2026-05-04 12:24 55.11526 39.18512 33909 ft 495 kts 110°
2026-05-04 12:24 55.10167 39.24049 34240 ft 495 kts 110°
2026-05-04 12:25 55.08799 39.29575 34542 ft 495 kts 111°
2026-05-04 12:25 55.07434 39.35085 34827 ft 496 kts 111°
2026-05-04 12:25 55.06068 39.40609 35097 ft 496 kts 111°
2026-05-04 12:25 55.04721 39.46071 35359 ft 497 kts 111°
2026-05-04 12:26 55.03335 39.51696 35617 ft 497 kts 111°
2026-05-04 12:26 55.01988 39.57157 35884 ft 497 kts 111°
2026-05-04 12:26 55.00621 39.62692 36135 ft 498 kts 111°
2026-05-04 12:26 54.99247 39.68241 36367 ft 498 kts 112°
2026-05-04 12:27 54.97873 39.73777 36616 ft 498 kts 112°
2026-05-04 12:27 54.96493 39.79321 36845 ft 499 kts 112°
2026-05-04 12:27 54.93702 39.90485 36884 ft 506 kts 112°
2026-05-04 12:28 54.90885 40.01691 36888 ft 505 kts 112°
2026-05-04 12:28 54.88061 40.12874 36891 ft 505 kts 112°
2026-05-04 12:29 54.85228 40.24034 36887 ft 505 kts 112°
2026-05-04 12:29 54.82386 40.35177 36888 ft 505 kts 113°
2026-05-04 12:30 54.79540 40.46279 36889 ft 504 kts 113°
2026-05-04 12:30 54.76698 40.57310 36892 ft 504 kts 113°
2026-05-04 12:31 54.73829 40.68392 36893 ft 504 kts 113°
2026-05-04 12:31 54.70950 40.79457 36893 ft 504 kts 113°
2026-05-04 12:32 54.66611 40.96032 36893 ft 504 kts 113°
2026-05-04 12:33 54.63708 41.07055 36898 ft 504 kts 114°
2026-05-04 12:33 54.60798 41.18050 36896 ft 504 kts 114°
2026-05-04 12:34 54.57872 41.29055 36894 ft 504 kts 114°
2026-05-04 12:34 54.54942 41.40018 36897 ft 504 kts 114°
2026-05-04 12:35 54.52499 41.49121 36898 ft 504 kts 114°
2026-05-04 12:35 54.49548 41.60065 36897 ft 504 kts 114°
2026-05-04 12:36 54.46105 41.72770 36897 ft 504 kts 114°
2026-05-04 12:36 54.43618 41.81902 36893 ft 504 kts 114°
2026-05-04 12:37 54.40634 41.92813 36902 ft 504 kts 115°
2026-05-04 12:37 54.37641 42.03705 36899 ft 504 kts 115°
2026-05-04 12:38 54.34660 42.14502 36901 ft 504 kts 115°
2026-05-04 12:38 54.31649 42.25358 36903 ft 505 kts 115°
2026-05-04 12:39 54.28627 42.36201 36907 ft 505 kts 115°
2026-05-04 12:39 54.25590 42.47047 36908 ft 505 kts 115°
2026-05-04 12:40 54.22547 42.57866 36909 ft 505 kts 115°
2026-05-04 12:40 54.19487 42.68691 36911 ft 506 kts 115°
2026-05-04 12:41 54.16422 42.79487 36915 ft 506 kts 115°
2026-05-04 12:41 54.13344 42.90279 36908 ft 506 kts 116°
2026-05-04 12:42 54.10253 43.01063 36914 ft 506 kts 116°
2026-05-04 12:42 54.07173 43.11763 36910 ft 506 kts 116°
2026-05-04 12:43 54.04065 43.22510 36912 ft 506 kts 116°
2026-05-04 12:43 54.00944 43.33251 36919 ft 507 kts 116°
2026-05-04 12:44 53.97813 43.43981 36919 ft 507 kts 116°
2026-05-04 12:44 53.94672 43.54693 36919 ft 507 kts 116°
2026-05-04 12:45 53.91520 43.65394 36921 ft 507 kts 116°
2026-05-04 12:45 53.88358 43.76081 36922 ft 507 kts 116°
2026-05-04 12:46 53.85186 43.86757 36921 ft 507 kts 116°
2026-05-04 12:46 53.82003 43.97417 36924 ft 507 kts 116°
2026-05-04 12:47 53.78805 44.08081 36928 ft 507 kts 117°
2026-05-04 12:47 53.75622 44.18649 36929 ft 508 kts 117°
2026-05-04 12:48 53.72410 44.29264 36933 ft 508 kts 117°
2026-05-04 12:48 53.69183 44.39883 36931 ft 508 kts 117°
2026-05-04 12:49 53.65948 44.50480 36935 ft 508 kts 117°
2026-05-04 12:49 53.62707 44.61051 36938 ft 508 kts 117°
2026-05-04 12:50 53.59453 44.71616 36941 ft 508 kts 117°
2026-05-04 12:50 53.56194 44.82154 36938 ft 508 kts 117°
2026-05-04 12:51 53.52920 44.92692 36940 ft 508 kts 117°
2026-05-04 12:51 53.49638 45.03208 36938 ft 508 kts 117°
2026-05-04 12:52 53.46350 45.13700 36940 ft 508 kts 118°
2026-05-04 12:52 53.43049 45.24190 36940 ft 508 kts 118°
2026-05-04 12:53 53.39744 45.34643 36948 ft 508 kts 118°
2026-05-04 12:53 53.36427 45.45090 36944 ft 508 kts 118°
2026-05-04 12:54 53.33098 45.55529 36945 ft 508 kts 118°
2026-05-04 12:54 53.29771 45.65919 36945 ft 508 kts 118°
2026-05-04 12:55 53.26420 45.76339 36951 ft 508 kts 118°
2026-05-04 12:55 53.23090 45.86650 36949 ft 508 kts 118°
2026-05-04 12:56 53.19733 45.96999 36946 ft 508 kts 118°
2026-05-04 12:56 53.16365 46.07339 36951 ft 507 kts 119°
2026-05-04 12:57 53.12986 46.17670 36955 ft 507 kts 119°
2026-05-04 12:57 53.09599 46.27981 36954 ft 507 kts 119°
2026-05-04 12:58 53.06204 46.38275 36952 ft 507 kts 119°
2026-05-04 12:58 53.02800 46.48552 36959 ft 508 kts 119°
2026-05-04 12:59 52.99383 46.58823 36955 ft 507 kts 119°
2026-05-04 12:59 52.95964 46.69057 36953 ft 507 kts 120°
2026-05-04 13:00 52.92535 46.79283 36956 ft 507 kts 120°
2026-05-04 13:00 52.89117 46.89431 36954 ft 507 kts 120°
2026-05-04 13:01 52.85671 46.99621 36955 ft 507 kts 120°
2026-05-04 13:01 52.82281 47.09865 36954 ft 508 kts 115°
2026-05-04 13:02 52.79708 47.20743 36949 ft 508 kts 110°
2026-05-04 13:02 52.77350 47.31763 36950 ft 509 kts 109°
2026-05-04 13:03 52.75010 47.42804 36952 ft 509 kts 110°
2026-05-04 13:03 52.72645 47.53832 36948 ft 509 kts 110°
2026-05-04 13:04 52.70278 47.64753 36947 ft 509 kts 110°
2026-05-04 13:04 52.67890 47.75759 36945 ft 510 kts 110°
2026-05-04 13:05 52.65495 47.86751 36947 ft 510 kts 110°
2026-05-04 13:05 52.63091 47.97722 36942 ft 510 kts 110°
2026-05-04 13:06 52.60670 48.08706 36944 ft 510 kts 110°
2026-05-04 13:06 52.58239 48.19677 36945 ft 510 kts 111°
2026-05-04 13:07 52.55787 48.30635 36944 ft 511 kts 111°
2026-05-04 13:07 52.53328 48.41566 36945 ft 511 kts 111°
2026-05-04 13:08 52.50854 48.52514 36945 ft 511 kts 111°
2026-05-04 13:08 52.48371 48.63456 36947 ft 511 kts 111°
2026-05-04 13:09 52.45879 48.74381 36948 ft 512 kts 111°
2026-05-04 13:09 52.43371 48.85316 36945 ft 512 kts 111°
2026-05-04 13:10 52.40872 48.96159 36946 ft 512 kts 111°
2026-05-04 13:10 52.38345 49.07066 36944 ft 513 kts 111°
2026-05-04 13:11 52.35805 49.17985 36944 ft 513 kts 111°
2026-05-04 13:11 52.33250 49.28869 36943 ft 513 kts 112°
2026-05-04 13:12 52.30676 49.39746 36945 ft 513 kts 112°
2026-05-04 13:12 52.28092 49.50647 36943 ft 514 kts 112°
2026-05-04 13:13 52.25502 49.61525 36942 ft 514 kts 112°
2026-05-04 13:13 52.22896 49.72404 36941 ft 514 kts 112°
2026-05-04 13:14 52.20287 49.83251 36940 ft 514 kts 112°
2026-05-04 13:14 52.17660 49.94120 36944 ft 515 kts 112°
2026-05-04 13:15 52.15043 50.04895 36950 ft 515 kts 113°
2026-05-04 13:15 52.12395 50.15746 36940 ft 516 kts 113°
2026-05-04 13:16 52.09736 50.26586 36945 ft 516 kts 113°
2026-05-04 13:16 52.07066 50.37417 36945 ft 516 kts 113°
2026-05-04 13:17 52.04382 50.48255 36943 ft 517 kts 114°
2026-05-04 13:17 52.01688 50.59077 36945 ft 517 kts 114°
2026-05-04 13:18 51.98979 50.69905 36945 ft 518 kts 114°
2026-05-04 13:18 51.95436 50.79975 36948 ft 512 kts 131°
2026-05-04 13:18 51.93007 50.84143 36946 ft 507 kts 142°
2026-05-04 13:19 51.90194 50.87540 36947 ft 502 kts 152°
2026-05-04 13:19 51.83818 50.91801 36952 ft 494 kts 167°
2026-05-04 13:20 51.77177 50.94664 36951 ft 494 kts 169°
2026-05-04 13:20 51.70568 50.97390 36947 ft 495 kts 167°
2026-05-04 13:21 51.64213 51.02000 36950 ft 502 kts 153°
2026-05-04 13:21 51.58338 51.08023 36949 ft 505 kts 150°
2026-05-04 13:22 51.52500 51.14306 36958 ft 505 kts 150°
2026-05-04 13:22 51.46659 51.20553 36958 ft 504 kts 150°
2026-05-04 13:23 51.40816 51.26764 36952 ft 504 kts 150°
2026-05-04 13:23 51.34976 51.33016 36946 ft 504 kts 150°
2026-05-04 13:24 51.29146 51.39244 36942 ft 504 kts 150°
2026-05-04 13:24 51.23302 51.45458 36940 ft 504 kts 151°
2026-05-04 13:25 51.15637 51.53943 36935 ft 509 kts 143°
2026-05-04 13:25 51.10745 51.62186 36936 ft 514 kts 134°
2026-05-04 13:26 51.06180 51.70959 36941 ft 515 kts 133°
2026-05-04 13:26 51.01651 51.79792 36942 ft 515 kts 133°
2026-05-04 13:27 50.97134 51.88508 36947 ft 514 kts 134°
2026-05-04 13:27 50.92570 51.97231 36945 ft 514 kts 134°
2026-05-04 13:28 50.87991 52.05935 36949 ft 514 kts 134°
2026-05-04 13:28 50.83407 52.14621 36942 ft 513 kts 134°
2026-05-04 13:29 50.78826 52.23276 36946 ft 513 kts 134°
2026-05-04 13:29 50.74239 52.31913 36942 ft 513 kts 134°
2026-05-04 13:30 50.69649 52.40527 36943 ft 512 kts 135°
2026-05-04 13:30 50.65069 52.49141 36941 ft 512 kts 134°
2026-05-04 13:31 50.60504 52.57737 36938 ft 512 kts 134°
2026-05-04 13:31 50.55956 52.66272 36939 ft 512 kts 134°
2026-05-04 13:32 50.51378 52.74829 36943 ft 511 kts 135°
2026-05-04 13:32 50.46793 52.83370 36947 ft 511 kts 135°
2026-05-04 13:33 50.42214 52.91872 36939 ft 510 kts 135°
2026-05-04 13:33 50.37626 53.00360 36941 ft 510 kts 135°
2026-05-04 13:34 50.33040 53.08818 36946 ft 509 kts 135°
2026-05-04 13:34 50.28447 53.17262 36937 ft 509 kts 135°
2026-05-04 13:35 50.21581 53.29832 36942 ft 509 kts 135°
2026-05-04 13:36 50.16982 53.38217 36939 ft 509 kts 135°
2026-05-04 13:36 50.12375 53.46591 36937 ft 509 kts 135°
2026-05-04 13:37 50.07762 53.54947 36932 ft 508 kts 135°
2026-05-04 13:37 50.03145 53.63285 36931 ft 508 kts 135°
2026-05-04 13:38 49.98521 53.71607 36930 ft 508 kts 135°
2026-05-04 13:38 49.93895 53.79906 36924 ft 508 kts 135°
2026-05-04 13:39 49.89261 53.88195 36921 ft 508 kts 135°
2026-05-04 13:39 49.84623 53.96477 36916 ft 508 kts 135°
2026-05-04 13:40 49.79980 54.04724 36915 ft 508 kts 135°
2026-05-04 13:40 49.75328 54.12961 36911 ft 508 kts 135°
2026-05-04 13:41 49.70672 54.21185 36910 ft 508 kts 135°
2026-05-04 13:41 49.66039 54.29341 36901 ft 508 kts 135°
2026-05-04 13:42 49.59036 54.41620 36896 ft 508 kts 135°
2026-05-04 13:42 49.54356 54.49794 36893 ft 508 kts 135°
2026-05-04 13:43 49.49681 54.57934 36888 ft 507 kts 135°
2026-05-04 13:43 49.45008 54.66046 36886 ft 507 kts 135°
2026-05-04 13:44 49.40326 54.74145 36877 ft 507 kts 135°
2026-05-04 13:44 49.35638 54.82233 36871 ft 507 kts 135°
2026-05-04 13:45 49.30980 54.90242 36888 ft 506 kts 135°
2026-05-04 13:45 49.26292 54.98280 36881 ft 506 kts 135°
2026-05-04 13:46 49.21589 55.06318 36875 ft 506 kts 135°
2026-05-04 13:46 49.16892 55.14321 36875 ft 505 kts 135°
2026-05-04 13:47 49.12195 55.22312 36875 ft 505 kts 135°
2026-05-04 13:47 49.07490 55.30278 36875 ft 505 kts 135°
2026-05-04 13:48 49.02787 55.38216 36872 ft 504 kts 135°
2026-05-04 13:48 48.98080 55.46138 36879 ft 504 kts 135°
2026-05-04 13:49 48.93377 55.54034 36876 ft 503 kts 135°
2026-05-04 13:49 48.88669 55.61911 36871 ft 503 kts 135°
2026-05-04 13:50 48.83964 55.69765 36869 ft 503 kts 135°
2026-05-04 13:50 48.79254 55.77601 36872 ft 502 kts 135°
2026-05-04 13:51 48.74529 55.85421 36873 ft 502 kts 135°
2026-05-04 13:51 48.69810 55.93209 36872 ft 501 kts 135°
2026-05-04 13:52 48.62735 56.04860 36872 ft 501 kts 135°
2026-05-04 13:53 48.58039 56.12549 36873 ft 501 kts 135°
2026-05-04 13:53 48.53310 56.20274 36876 ft 501 kts 135°
2026-05-04 13:54 48.46212 56.31836 36876 ft 500 kts 136°
2026-05-04 13:55 48.39106 56.43342 36877 ft 500 kts 136°
2026-05-04 13:55 48.31998 56.54821 36881 ft 499 kts 136°
2026-05-04 13:56 48.27297 56.62388 36884 ft 499 kts 136°
2026-05-04 13:57 48.20185 56.73791 36886 ft 498 kts 136°
2026-05-04 13:58 48.10705 56.88919 36888 ft 497 kts 136°
2026-05-04 13:58 48.03591 57.00215 36885 ft 497 kts 136°
2026-05-04 13:59 47.98870 57.07686 36886 ft 497 kts 136°
2026-05-04 14:00 47.91749 57.18911 36881 ft 496 kts 136°
2026-05-04 14:00 47.84619 57.30103 36882 ft 496 kts 136°
2026-05-04 14:01 47.79877 57.37521 36880 ft 495 kts 136°
2026-05-04 14:02 47.72747 57.48635 36877 ft 494 kts 136°
2026-05-04 14:02 47.67998 57.56011 36893 ft 494 kts 136°
2026-05-04 14:03 47.63249 57.63367 36864 ft 494 kts 137°
2026-05-04 14:03 47.58497 57.70711 36877 ft 493 kts 137°
2026-05-04 14:04 47.51360 57.81689 36875 ft 493 kts 137°
2026-05-04 14:04 47.46631 57.88940 36878 ft 492 kts 137°
2026-05-04 14:05 47.39496 57.99845 36875 ft 492 kts 137°
2026-05-04 14:06 47.34737 58.07093 36879 ft 492 kts 137°
2026-05-04 14:06 47.29971 58.14332 36881 ft 491 kts 137°
2026-05-04 14:07 47.25214 58.21545 36882 ft 491 kts 137°
2026-05-04 14:07 47.20445 58.28738 36886 ft 491 kts 137°
2026-05-04 14:08 47.15672 58.35918 36889 ft 491 kts 137°
2026-05-04 14:08 47.10896 58.43086 36889 ft 491 kts 137°
2026-05-04 14:09 47.03730 58.53808 36897 ft 491 kts 137°
2026-05-04 14:10 46.96570 58.64478 36907 ft 491 kts 137°
2026-05-04 14:10 46.91777 58.71597 36901 ft 491 kts 137°
2026-05-04 14:11 46.86980 58.78702 36908 ft 491 kts 137°
2026-05-04 14:11 46.79776 58.89336 36913 ft 491 kts 137°
2026-05-04 14:12 46.74966 58.96412 36919 ft 491 kts 137°
2026-05-04 14:13 46.67740 59.07006 36923 ft 491 kts 137°
2026-05-04 14:13 46.62942 59.14017 36922 ft 492 kts 137°
2026-05-04 14:14 46.58110 59.21059 36922 ft 492 kts 137°
2026-05-04 14:14 46.50847 59.31609 36934 ft 492 kts 138°
2026-05-04 14:15 46.41955 59.44467 36945 ft 493 kts 138°
2026-05-04 14:16 46.34652 59.54981 36930 ft 494 kts 138°
2026-05-04 14:17 46.27329 59.65482 36945 ft 494 kts 138°
2026-05-04 14:18 46.19968 59.75925 36952 ft 494 kts 139°
2026-05-04 14:19 46.09782 59.89253 36951 ft 494 kts 140°
2026-05-04 14:19 46.04726 59.95869 36952 ft 494 kts 140°
2026-05-04 14:20 45.99650 60.02539 36955 ft 495 kts 140°
2026-05-04 14:20 45.94567 60.09210 36956 ft 495 kts 140°
2026-05-04 14:21 45.86930 60.19198 36958 ft 495 kts 140°
2026-05-04 14:21 45.81835 60.25837 36957 ft 495 kts 140°
2026-05-04 14:22 45.76735 60.32465 36956 ft 495 kts 140°
2026-05-04 14:22 45.71632 60.39080 36960 ft 495 kts 140°
2026-05-04 14:23 45.63962 60.48991 36962 ft 495 kts 140°
2026-05-04 14:24 45.58839 60.55590 36958 ft 495 kts 140°
2026-05-04 14:24 45.53714 60.62174 36953 ft 495 kts 140°
2026-05-04 14:25 45.48592 60.68738 36958 ft 495 kts 140°
2026-05-04 14:25 45.40928 60.78531 36959 ft 495 kts 140°
2026-05-04 14:26 45.35795 60.85070 36958 ft 495 kts 140°
2026-05-04 14:26 45.30650 60.91594 36955 ft 496 kts 140°
2026-05-04 14:27 45.25502 60.98107 36958 ft 496 kts 141°
2026-05-04 14:27 45.20342 61.04624 36957 ft 496 kts 140°
2026-05-04 14:28 45.15184 61.11123 36960 ft 496 kts 141°
2026-05-04 14:28 45.10023 61.17608 36958 ft 497 kts 141°
2026-05-04 14:29 44.99664 61.30576 36956 ft 497 kts 141°
2026-05-04 14:30 44.94483 61.37038 36958 ft 497 kts 141°
2026-05-04 14:30 44.89324 61.43456 37204 ft 497 kts 141°
2026-05-04 14:31 44.86741 61.46670 37541 ft 495 kts 141°
2026-05-04 14:31 44.81563 61.53094 38060 ft 495 kts 141°
2026-05-04 14:32 44.76375 61.59511 38511 ft 496 kts 141°
2026-05-04 14:32 44.73783 61.62712 38715 ft 496 kts 141°
2026-05-04 14:32 44.71183 61.65919 38889 ft 497 kts 141°
2026-05-04 14:33 44.65986 61.72316 38968 ft 501 kts 141°
2026-05-04 14:33 44.60709 61.78798 38963 ft 500 kts 141°
2026-05-04 14:34 44.55502 61.85179 38964 ft 500 kts 141°
2026-05-04 14:34 44.50256 61.91591 38962 ft 500 kts 141°
2026-05-04 14:35 44.45002 61.97997 38961 ft 500 kts 141°
2026-05-04 14:35 44.39749 62.04384 38963 ft 500 kts 141°
2026-05-04 14:36 44.34491 62.10762 38963 ft 500 kts 141°
2026-05-04 14:36 44.29230 62.17129 38962 ft 500 kts 141°
2026-05-04 14:37 44.23999 62.23443 38961 ft 500 kts 141°
2026-05-04 14:37 44.18728 62.29792 38964 ft 501 kts 141°
2026-05-04 14:38 44.13454 62.36131 38963 ft 501 kts 141°
2026-05-04 14:38 44.08168 62.42445 38964 ft 501 kts 141°
2026-05-04 14:39 44.02871 62.48756 38966 ft 501 kts 141°
2026-05-04 14:39 43.97574 62.55058 38959 ft 501 kts 141°
2026-05-04 14:40 43.89652 62.64456 38959 ft 502 kts 141°
2026-05-04 14:40 43.84342 62.70738 38960 ft 502 kts 141°
2026-05-04 14:41 43.79029 62.77007 38962 ft 502 kts 141°
2026-05-04 14:42 43.68378 62.89540 38958 ft 503 kts 141°
2026-05-04 14:42 43.63039 62.95786 38961 ft 503 kts 142°
2026-05-04 14:43 43.57699 63.02039 38959 ft 503 kts 141°
2026-05-04 14:43 43.52355 63.08279 38957 ft 503 kts 141°
2026-05-04 14:44 43.47010 63.14506 38964 ft 503 kts 142°
2026-05-04 14:44 43.41657 63.20730 38960 ft 504 kts 142°
2026-05-04 14:45 43.36298 63.26946 38962 ft 504 kts 142°
2026-05-04 14:45 43.30966 63.33122 38961 ft 504 kts 141°
2026-05-04 14:46 43.25600 63.39316 38966 ft 505 kts 142°
2026-05-04 14:46 43.20209 63.45513 38967 ft 505 kts 142°
2026-05-04 14:47 43.14820 63.51695 38968 ft 506 kts 142°
2026-05-04 14:47 43.09419 63.57879 38969 ft 506 kts 142°
2026-05-04 14:48 43.04016 63.64053 38973 ft 506 kts 142°
2026-05-04 14:48 42.98611 63.70215 38976 ft 506 kts 142°
2026-05-04 14:49 42.93196 63.76378 38975 ft 507 kts 142°
2026-05-04 14:49 42.87764 63.82524 38979 ft 507 kts 142°
2026-05-04 14:50 42.82328 63.88658 38976 ft 507 kts 142°
2026-05-04 14:50 42.76885 63.94790 38982 ft 508 kts 142°
2026-05-04 14:51 42.71475 64.00873 38979 ft 508 kts 142°
2026-05-04 14:51 42.66015 64.06998 38987 ft 509 kts 142°
2026-05-04 14:52 42.60526 64.13050 38978 ft 508 kts 146°
2026-05-04 14:52 42.54418 64.17807 38987 ft 505 kts 155°
2026-05-04 14:53 42.48089 64.21967 38983 ft 506 kts 157°
2026-05-04 14:53 42.41715 64.26044 38991 ft 507 kts 157°
2026-05-04 14:54 42.35341 64.30135 38979 ft 507 kts 156°
2026-05-04 14:54 42.28970 64.34242 38990 ft 507 kts 156°
2026-05-04 14:55 42.22593 64.38354 38979 ft 508 kts 156°
2026-05-04 14:55 42.16219 64.42453 38986 ft 508 kts 156°
2026-05-04 14:56 42.09834 64.46550 38982 ft 509 kts 156°
2026-05-04 14:56 42.03470 64.50624 38978 ft 509 kts 156°
2026-05-04 14:57 41.97068 64.54712 38978 ft 510 kts 156°
2026-05-04 14:57 41.90657 64.58797 38982 ft 510 kts 157°
2026-05-04 14:58 41.84230 64.62883 38979 ft 511 kts 157°
2026-05-04 14:58 41.78884 64.66275 38978 ft 512 kts 157°
2026-05-04 14:59 41.71358 64.71040 38977 ft 512 kts 157°
2026-05-04 15:00 41.61677 64.77151 38977 ft 513 kts 157°
2026-05-04 15:00 41.55222 64.81214 38980 ft 513 kts 157°
2026-05-04 15:01 41.45525 64.87300 38977 ft 514 kts 157°
2026-05-04 15:01 41.39051 64.91352 38974 ft 514 kts 157°
2026-05-04 15:02 41.32565 64.95404 38972 ft 515 kts 157°
2026-05-04 15:02 41.26065 64.99454 38964 ft 515 kts 157°
2026-05-04 15:03 41.19613 65.03467 38967 ft 516 kts 157°
2026-05-04 15:03 41.13105 65.07499 38964 ft 516 kts 157°
2026-05-04 15:04 41.06584 65.11514 38968 ft 517 kts 157°
2026-05-04 15:04 41.01119 65.14872 38963 ft 517 kts 157°
2026-05-04 15:05 40.94608 65.18869 38967 ft 517 kts 157°
2026-05-04 15:05 40.88069 65.22875 38968 ft 517 kts 157°
2026-05-04 15:06 40.81532 65.26871 38971 ft 517 kts 157°
2026-05-04 15:07 40.71767 65.32825 38976 ft 518 kts 157°
2026-05-04 15:07 40.65216 65.36808 38975 ft 519 kts 157°
2026-05-04 15:08 40.58657 65.40787 38979 ft 519 kts 157°
2026-05-04 15:08 40.52103 65.44755 38980 ft 519 kts 157°
2026-05-04 15:09 40.45533 65.48723 38982 ft 519 kts 157°
2026-05-04 15:09 40.38963 65.52684 38984 ft 519 kts 157°
2026-05-04 15:10 40.29107 65.58618 38986 ft 520 kts 157°
2026-05-04 15:11 40.19232 65.64536 38985 ft 520 kts 158°
2026-05-04 15:11 40.12639 65.68476 38985 ft 521 kts 158°
2026-05-04 15:12 40.06050 65.72408 38983 ft 521 kts 158°
2026-05-04 15:12 39.99497 65.76310 38982 ft 521 kts 158°
2026-05-04 15:13 39.92897 65.80232 38982 ft 522 kts 158°
2026-05-04 15:13 39.86288 65.84151 38980 ft 522 kts 158°
2026-05-04 15:14 39.79678 65.88063 38978 ft 522 kts 158°
2026-05-04 15:14 39.73067 65.91967 38975 ft 522 kts 158°
2026-05-04 15:15 39.66449 65.95867 38977 ft 522 kts 158°
2026-05-04 15:15 39.59822 65.99769 38973 ft 523 kts 158°
2026-05-04 15:16 39.49879 66.05604 38977 ft 523 kts 158°
2026-05-04 15:17 39.39927 66.11420 38974 ft 523 kts 158°
2026-05-04 15:17 39.29998 66.17209 38975 ft 524 kts 158°
2026-05-04 15:18 39.23347 66.21077 38973 ft 524 kts 158°
2026-05-04 15:19 39.13375 66.26862 38969 ft 524 kts 158°
2026-05-04 15:19 39.03384 66.32639 38972 ft 525 kts 158°
2026-05-04 15:20 38.96711 66.36488 38974 ft 525 kts 158°
2026-05-04 15:20 38.90042 66.40327 38972 ft 525 kts 158°
2026-05-04 15:21 38.83364 66.44162 38979 ft 526 kts 158°
2026-05-04 15:22 38.73393 66.49877 38990 ft 526 kts 158°
2026-05-04 15:22 38.63345 66.55568 39002 ft 526 kts 158°
2026-05-04 15:23 38.56645 66.59335 39011 ft 526 kts 158°
2026-05-04 15:23 38.49941 66.63104 39021 ft 526 kts 158°
2026-05-04 15:24 38.36513 66.70641 39034 ft 527 kts 158°
2026-05-04 15:25 38.29833 66.74379 39039 ft 528 kts 159°
2026-05-04 15:26 38.19741 66.80012 39039 ft 528 kts 159°
2026-05-04 15:26 38.09639 66.85633 39039 ft 528 kts 159°
2026-05-04 15:27 37.99532 66.91240 39016 ft 528 kts 159°
2026-05-04 15:28 37.89430 66.96828 39009 ft 528 kts 159°
2026-05-04 15:29 37.79363 67.02378 38990 ft 528 kts 159°
2026-05-04 15:30 37.55763 67.15327 38955 ft 528 kts 159°
2026-05-04 15:31 37.45648 67.20850 38961 ft 528 kts 159°
2026-05-04 15:32 37.28771 67.30028 38966 ft 528 kts 159°
2026-05-04 15:34 37.12262 67.40248 38958 ft 530 kts 153°
2026-05-04 15:34 37.02585 67.46993 38956 ft 531 kts 153°
2026-05-04 15:35 36.92942 67.53679 38962 ft 531 kts 153°
2026-05-04 15:36 36.83244 67.60368 38975 ft 531 kts 153°
2026-05-04 15:36 36.76774 67.64820 38979 ft 531 kts 153°
2026-05-04 15:37 36.70295 67.69271 38990 ft 531 kts 153°
2026-05-04 15:37 36.63822 67.73730 39001 ft 531 kts 153°
2026-05-04 15:38 36.57365 67.78177 39007 ft 531 kts 153°
2026-05-04 15:38 36.50897 67.82622 39009 ft 531 kts 153°
2026-05-04 15:39 36.44426 67.87059 39021 ft 531 kts 153°
2026-05-04 15:40 36.34723 67.93693 39032 ft 530 kts 153°
2026-05-04 15:40 36.28298 67.98076 39044 ft 530 kts 153°
2026-05-04 15:41 36.21835 68.02475 39051 ft 531 kts 153°
2026-05-04 15:41 36.15363 68.06873 39060 ft 531 kts 153°
2026-05-04 15:42 36.08879 68.11271 39061 ft 531 kts 153°
2026-05-04 15:42 36.02399 68.15659 39076 ft 531 kts 153°
2026-05-04 15:43 35.95921 68.20036 39083 ft 531 kts 153°
2026-05-04 15:43 35.89436 68.24410 39093 ft 530 kts 153°
2026-05-04 15:44 35.82963 68.28768 39091 ft 530 kts 153°
2026-05-04 15:44 35.76492 68.33116 39090 ft 530 kts 153°
2026-05-04 15:45 35.70025 68.37453 39087 ft 530 kts 153°
2026-05-04 15:45 35.63545 68.41791 39102 ft 531 kts 153°
2026-05-04 15:46 35.57057 68.46129 39104 ft 531 kts 153°
2026-05-04 15:46 35.50602 68.50409 39114 ft 531 kts 154°
2026-05-04 15:47 35.44093 68.54703 39127 ft 531 kts 154°
2026-05-04 15:47 35.37584 68.58995 39133 ft 530 kts 154°
2026-05-04 15:48 35.31082 68.63279 39131 ft 530 kts 154°
2026-05-04 15:48 35.21320 68.69696 39128 ft 531 kts 154°
2026-05-04 15:49 35.14817 68.73964 39108 ft 531 kts 154°
2026-05-04 15:49 35.08350 68.78202 39087 ft 530 kts 154°
2026-05-04 15:50 35.01845 68.82453 39066 ft 531 kts 154°
2026-05-04 15:50 34.95325 68.86705 39041 ft 531 kts 154°
2026-05-04 15:51 34.88806 68.90954 39016 ft 531 kts 154°
2026-05-04 15:51 34.82288 68.95193 38993 ft 531 kts 154°
2026-05-04 15:52 34.75774 68.99421 38989 ft 530 kts 154°
2026-05-04 15:52 34.69258 69.03640 38973 ft 530 kts 154°
2026-05-04 15:53 34.62741 69.07852 38968 ft 531 kts 154°
2026-05-04 15:53 34.57333 69.11375 38952 ft 531 kts 152°
2026-05-04 15:54 34.51568 69.16977 38954 ft 535 kts 131°
2026-05-04 15:54 34.49354 69.20595 38953 ft 535 kts 120°
2026-05-04 15:54 34.47514 69.24513 38950 ft 535 kts 118°
2026-05-04 15:55 34.44108 69.32539 38951 ft 535 kts 116°
2026-05-04 15:55 34.40789 69.40558 38951 ft 535 kts 116°
2026-05-04 15:56 34.37416 69.48575 38952 ft 534 kts 117°
2026-05-04 15:56 34.34005 69.56577 38957 ft 534 kts 117°
2026-05-04 15:57 34.30590 69.64549 38957 ft 533 kts 117°
2026-05-04 15:57 34.27175 69.72507 38974 ft 532 kts 117°
2026-05-04 15:58 34.23783 69.80388 38968 ft 532 kts 117°
2026-05-04 15:58 34.20373 69.88302 38968 ft 531 kts 117°
2026-05-04 15:59 34.16956 69.96217 38974 ft 531 kts 117°
2026-05-04 15:59 34.13515 70.04112 38977 ft 531 kts 117°
2026-05-04 16:00 34.10054 70.11990 38973 ft 531 kts 117°
2026-05-04 16:00 34.06584 70.19883 38985 ft 532 kts 117°
2026-05-04 16:01 34.03113 70.27775 38977 ft 533 kts 117°
2026-05-04 16:01 33.99629 70.35677 38980 ft 534 kts 117°
2026-05-04 16:02 33.95527 70.43104 38975 ft 534 kts 134°
2026-05-04 16:02 33.89753 70.48502 38979 ft 528 kts 156°
2026-05-04 16:03 33.86371 70.50162 38982 ft 523 kts 168°
2026-05-04 16:03 33.79257 70.51525 38985 ft 517 kts 179°
2026-05-04 16:04 33.72082 70.52174 38987 ft 517 kts 180°
2026-05-04 16:04 33.61289 70.53104 38972 ft 518 kts 180°
2026-05-04 16:05 33.54101 70.53787 38961 ft 518 kts 179°
2026-05-04 16:06 33.43374 70.54835 38942 ft 517 kts 180°
2026-05-04 16:07 33.29067 70.56220 38924 ft 514 kts 180°
2026-05-04 16:08 33.14806 70.57593 38914 ft 514 kts 180°
2026-05-04 16:09 32.96961 70.58876 38899 ft 508 kts 190°
2026-05-04 16:09 32.90288 70.56857 38893 ft 493 kts 210°
2026-05-04 16:10 32.84397 70.52842 38895 ft 487 kts 218°
2026-05-04 16:11 32.73063 70.44037 38895 ft 487 kts 218°
2026-05-04 16:12 32.55867 70.31287 39723 ft 484 kts 215°
2026-05-04 16:13 32.50002 70.27294 39891 ft 487 kts 215°
2026-05-04 16:13 32.44146 70.23269 39893 ft 486 kts 216°
2026-05-04 16:14 32.32506 70.15157 39894 ft 485 kts 217°
2026-05-04 16:16 32.18177 70.04751 39877 ft 485 kts 217°
2026-05-04 16:17 32.03760 69.94398 39884 ft 485 kts 217°
2026-05-04 16:18 31.92231 69.86153 39892 ft 485 kts 217°
2026-05-04 16:19 31.77814 69.75878 39890 ft 486 kts 217°
2026-05-04 16:20 31.63321 69.65585 39900 ft 487 kts 217°
2026-05-04 16:22 31.48809 69.55316 39897 ft 487 kts 217°
2026-05-04 16:23 31.32345 69.41886 39890 ft 474 kts 232°
2026-05-04 16:25 31.18994 69.24861 39870 ft 473 kts 233°
2026-05-04 16:26 31.03397 69.05097 39856 ft 474 kts 233°
2026-05-04 16:28 30.92211 68.90986 39847 ft 474 kts 234°
2026-05-04 16:29 30.76511 68.71275 39835 ft 474 kts 234°
2026-05-04 16:31 30.65308 68.57271 39837 ft 474 kts 234°
2026-05-04 16:32 30.51834 68.40495 39852 ft 473 kts 234°
2026-05-04 16:33 30.42851 68.29349 39862 ft 473 kts 234°
2026-05-04 16:34 30.36108 68.21006 39867 ft 472 kts 234°
2026-05-04 16:35 30.22681 68.04443 39845 ft 472 kts 234°
2026-05-04 16:36 30.15941 67.96155 39838 ft 471 kts 234°
2026-05-04 16:37 30.09210 67.87893 39817 ft 470 kts 234°
2026-05-04 16:38 30.00281 67.76859 39785 ft 470 kts 234°
2026-05-04 16:39 29.89169 67.63123 39765 ft 469 kts 234°
2026-05-04 16:40 29.80876 67.52917 39776 ft 468 kts 235°
2026-05-04 16:41 29.69767 67.39279 39796 ft 467 kts 235°
2026-05-04 16:43 29.58677 67.25638 39837 ft 466 kts 235°
2026-05-04 16:43 29.52038 67.17509 39864 ft 464 kts 235°
2026-05-04 16:45 29.38818 67.01358 39911 ft 464 kts 235°
2026-05-04 16:46 29.28499 66.88793 39930 ft 464 kts 235°
2026-05-04 16:47 29.19615 66.78021 39961 ft 465 kts 235°
2026-05-04 16:48 29.10720 66.67254 39955 ft 466 kts 235°
2026-05-04 16:49 29.01801 66.56485 39953 ft 466 kts 235°
2026-05-04 16:50 28.92916 66.45735 39950 ft 467 kts 235°
2026-05-04 16:51 28.86216 66.37648 39949 ft 468 kts 235°
2026-05-04 16:52 28.77254 66.26860 39945 ft 468 kts 235°
2026-05-04 16:53 28.70524 66.18775 39940 ft 468 kts 235°
2026-05-04 16:54 28.61585 66.08063 39921 ft 468 kts 235°
2026-05-04 16:55 28.48100 65.91957 39886 ft 468 kts 235°
2026-05-04 16:56 28.36866 65.78587 39875 ft 468 kts 235°
2026-05-04 16:57 28.30114 65.70571 39859 ft 468 kts 235°
2026-05-04 16:58 28.21132 65.59939 39849 ft 468 kts 235°
2026-05-04 17:00 28.07604 65.43969 39831 ft 468 kts 234°
2026-05-04 17:01 27.96330 65.30710 39835 ft 467 kts 234°
2026-05-04 17:02 27.87304 65.20121 39836 ft 467 kts 234°
2026-05-04 17:03 27.80568 65.12240 39838 ft 467 kts 234°
2026-05-04 17:03 27.73799 65.04334 39842 ft 466 kts 234°
2026-05-04 17:04 27.64773 64.93818 39848 ft 466 kts 234°
2026-05-04 17:05 27.55746 64.83324 39864 ft 466 kts 234°
2026-05-04 17:06 27.48970 64.75464 39860 ft 466 kts 234°
2026-05-04 17:07 27.42953 64.68496 39863 ft 466 kts 234°
2026-05-04 17:07 27.37703 64.62424 39865 ft 466 kts 234°
2026-05-04 17:08 27.30910 64.54585 39867 ft 466 kts 234°
2026-05-04 17:09 27.26381 64.49365 39867 ft 466 kts 234°
2026-05-04 17:09 27.21849 64.44150 39873 ft 466 kts 234°
2026-05-04 17:10 27.10550 64.31178 39870 ft 465 kts 233°
2026-05-04 17:11 27.06027 64.25994 39868 ft 465 kts 233°
2026-05-04 17:12 26.99238 64.18226 39866 ft 465 kts 233°
2026-05-04 17:13 26.87885 64.05332 39857 ft 465 kts 233°
2026-05-04 17:14 26.78806 63.95104 39852 ft 464 kts 232°
2026-05-04 17:15 26.71974 63.87414 39844 ft 464 kts 232°
2026-05-04 17:16 26.62854 63.77170 39833 ft 464 kts 232°
2026-05-04 17:17 26.53736 63.66954 39830 ft 465 kts 232°
2026-05-04 17:18 26.44602 63.56744 39836 ft 465 kts 232°
2026-05-04 17:19 26.35447 63.46535 39827 ft 465 kts 232°
2026-05-04 17:20 26.26288 63.36345 39822 ft 465 kts 232°
2026-05-04 17:20 26.19431 63.28732 39813 ft 465 kts 232°
2026-05-04 17:21 26.10254 63.18565 39802 ft 466 kts 232°
2026-05-04 17:22 26.05657 63.13479 39798 ft 466 kts 232°
2026-05-04 17:23 25.96460 63.03321 39790 ft 466 kts 231°
2026-05-04 17:24 25.89565 62.95684 39785 ft 467 kts 231°
2026-05-04 17:25 25.80383 62.85540 39786 ft 467 kts 231°
2026-05-04 17:26 25.71149 62.75368 39772 ft 468 kts 231°
2026-05-04 17:27 25.59598 62.62676 39761 ft 468 kts 231°
2026-05-04 17:28 25.50335 62.52524 39771 ft 468 kts 231°
2026-05-04 17:29 25.36451 62.37351 39768 ft 469 kts 231°
2026-05-04 17:31 25.24839 62.24695 39757 ft 469 kts 229°
2026-05-04 17:32 25.13237 62.12095 39758 ft 469 kts 229°
2026-05-04 17:33 25.03913 62.01993 39750 ft 470 kts 229°
2026-05-04 17:34 24.94573 61.91895 39748 ft 470 kts 228°
2026-05-04 17:35 24.83665 61.80130 39743 ft 471 kts 228°
2026-05-04 17:36 24.78977 61.75084 39743 ft 471 kts 228°
2026-05-04 17:36 24.74290 61.70045 39744 ft 471 kts 228°
2026-05-04 17:37 24.69600 61.65006 39742 ft 471 kts 228°
2026-05-04 17:37 24.64931 61.59998 39740 ft 471 kts 228°
2026-05-04 17:38 24.60230 61.54959 39741 ft 472 kts 227°
2026-05-04 17:38 24.55529 61.49926 39738 ft 472 kts 227°
2026-05-04 17:39 24.48476 61.42387 39740 ft 472 kts 227°
2026-05-04 17:39 24.43810 61.37325 39738 ft 470 kts 231°
2026-05-04 17:40 24.40155 61.31473 39737 ft 463 kts 247°
2026-05-04 17:40 24.38159 61.24810 39739 ft 459 kts 258°
2026-05-04 17:41 24.36728 61.17962 39739 ft 460 kts 259°
2026-05-04 17:41 24.35364 61.11153 39738 ft 460 kts 259°
2026-05-04 17:42 24.33959 61.04305 39735 ft 460 kts 258°
2026-05-04 17:42 24.32531 60.97465 39736 ft 460 kts 258°
2026-05-04 17:43 24.31093 60.90622 39737 ft 460 kts 258°
2026-05-04 17:43 24.29652 60.83778 39736 ft 460 kts 258°
2026-05-04 17:44 24.28211 60.76946 39731 ft 460 kts 258°
2026-05-04 17:44 24.26766 60.70112 39731 ft 460 kts 258°
2026-05-04 17:45 24.25319 60.63279 39730 ft 460 kts 258°
2026-05-04 17:45 24.23876 60.56487 39730 ft 460 kts 258°
2026-05-04 17:46 24.22422 60.49652 39729 ft 460 kts 258°
2026-05-04 17:46 24.20964 60.42820 39729 ft 461 kts 258°
2026-05-04 17:47 24.19503 60.35986 39726 ft 461 kts 258°
2026-05-04 17:47 24.18038 60.29152 39728 ft 461 kts 258°
2026-05-04 17:48 24.16570 60.22316 39728 ft 461 kts 258°
2026-05-04 17:48 24.15109 60.15531 39730 ft 461 kts 258°
2026-05-04 17:49 24.13634 60.08696 39728 ft 461 kts 257°
2026-05-04 17:49 24.12157 60.01866 39729 ft 461 kts 257°
2026-05-04 17:50 24.10675 59.95032 39732 ft 461 kts 257°
2026-05-04 17:50 24.09191 59.88202 39730 ft 461 kts 257°
2026-05-04 17:51 24.07705 59.81378 39733 ft 461 kts 257°
2026-05-04 17:51 24.06213 59.74543 39733 ft 461 kts 257°
2026-05-04 17:52 24.04728 59.67756 39735 ft 461 kts 257°
2026-05-04 17:52 24.03231 59.60925 39735 ft 462 kts 257°
2026-05-04 17:53 24.01730 59.54097 39738 ft 462 kts 257°
2026-05-04 17:53 24.00225 59.47265 39739 ft 462 kts 257°
2026-05-04 17:54 23.98718 59.40437 39741 ft 462 kts 257°
2026-05-04 17:54 23.97208 59.33610 39741 ft 462 kts 257°
2026-05-04 17:55 23.95694 59.26781 39742 ft 462 kts 257°
2026-05-04 17:55 23.94176 59.19953 39742 ft 462 kts 257°
2026-05-04 17:56 23.92655 59.13125 39743 ft 462 kts 257°
2026-05-04 17:56 23.91283 59.06266 39740 ft 462 kts 259°
2026-05-04 17:57 23.90037 58.99379 39738 ft 462 kts 259°
2026-05-04 17:57 23.88778 58.92531 39736 ft 462 kts 259°
2026-05-04 17:58 23.87480 58.85654 39732 ft 462 kts 259°
2026-05-04 17:58 23.86168 58.78774 39730 ft 463 kts 259°
2026-05-04 17:59 23.84851 58.71886 39731 ft 463 kts 259°
2026-05-04 18:00 23.82873 58.61562 39732 ft 463 kts 259°
2026-05-04 18:00 23.81646 58.55175 39730 ft 463 kts 259°
2026-05-04 18:01 23.80321 58.48295 39726 ft 463 kts 259°
2026-05-04 18:01 23.78992 58.41413 39723 ft 463 kts 259°
2026-05-04 18:02 23.77001 58.31135 39726 ft 463 kts 259°
2026-05-04 18:02 23.75667 58.24265 39725 ft 462 kts 259°
2026-05-04 18:03 23.74329 58.17397 39725 ft 462 kts 259°
2026-05-04 18:03 23.72990 58.10538 39728 ft 462 kts 259°
2026-05-04 18:04 23.71647 58.03678 39741 ft 462 kts 259°
2026-05-04 18:05 23.70014 57.93376 39756 ft 461 kts 269°
2026-05-04 18:05 23.70684 57.86440 39761 ft 460 kts 281°
2026-05-04 18:06 23.72874 57.76244 39763 ft 460 kts 283°
2026-05-04 18:06 23.74396 57.69455 39762 ft 460 kts 283°
2026-05-04 18:07 23.75890 57.62658 39765 ft 460 kts 283°
2026-05-04 18:07 23.77362 57.55876 39759 ft 459 kts 283°
2026-05-04 18:08 23.78189 57.52051 39763 ft 459 kts 283°